Temp_Advection
nan nan nan nan nan nan nan nan nan nan nan nan nan nan nan nan nan nan nan nan nan nan nan nan nan nan nan nan nan nan nan nan nan nan nan nan nan nan nan nan nan nan nan nan
nan -1 -0 -0 -0 0 0 0 0 -0 -0 0 0 0 0 -0 -0 -1 -1 -1 -0 -0 -0 0 0 -0 0 0 0 0 0 0 0 -0 0 1 1 1 0 0 0 0 -0 nan
nan -0 -0 -0 -0 0 0 0 -0 -0 -0 -0 0 0 0 0 0 -0 -1 -1 -0 -0 -0 -0 -0 -0 -1 -0 -0 -0 0 0 -0 -0 0 0 0 0 0 -0 -0 -0 -0 nan
nan -0 -0 0 -0 -0 -0 -0 -0 -0 -0 -0 -0 0 -0 0 0 -0 -0 -1 -1 -0 -0 -0 -1 -1 -1 -1 -1 -0 0 0 -0 -0 -0 -0 -0 -1 -0 -0 -0 -0 -0 nan
nan -0 -0 -0 -0 -0 -0 -0 -0 0 0 0 0 0 -0 -0 0 0 -0 -2 -2 -1 -0 -1 -1 -0 0 -0 -0 -0 -0 -0 -0 0 0 0 -0 -0 -0 -1 -1 -0 -0 nan
nan -0 -0 -1 -0 -0 0 0 0 -0 -0 0 -0 0 -0 -0 -0 0 0 -1 -1 -1 -0 0 1 0 0 -0 -0 -1 -1 -1 0 0 0 0 -0 -0 -1 -0 0 0 0 nan
nan 0 -0 0 -0 0 0 -0 -0 -0 0 -0 0 0 -1 -0 -0 -0 -1 -1 0 0 0 0 -0 -1 -1 -1 -1 -1 -1 -1 -1 -1 -1 -1 -1 -1 -0 0 0 0 -0 nan
nan -0 0 0 0 -0 0 -0 -0 -0 -0 -0 0 -0 -0 -0 -1 -1 -0 -0 0 0 -0 -1 -1 -1 -1 -0 -1 -1 -1 -1 -1 -2 -2 -1 -1 -0 -0 -0 -0 -0 -0 nan
nan -0 -0 -0 -0 -0 -0 -0 -0 -0 0 -0 -0 -0 -0 -0 0 -0 -1 -1 0 0 -0 -0 -0 -0 0 -1 -1 -0 -0 -1 -1 -1 -0 -0 -0 -0 -1 -0 0 -0 -1 nan
nan 0 0 -0 -0 0 0 -0 -0 -0 -0 0 -0 -0 -0 -0 0 0 -0 -1 -1 1 -0 -1 -1 -1 -0 0 0 0 -0 -0 0 0 -0 -0 0 -0 -0 -0 -1 -1 -1 nan
nan 0 -0 -0 0 0 -0 -0 0 -0 -0 0 0 -0 -1 -0 0 0 -0 -1 -0 -0 -1 -1 0 0 1 0 -0 0 1 0 0 0 1 0 -0 -1 -0 -0 -0 -0 -1 nan
nan -0 0 -1 -0 -0 -0 0 0 0 0 0 0 -1 -0 1 0 -0 -1 -2 -0 0 -0 -0 -0 1 1 0 -0 -1 0 -0 0 1 1 -0 -0 1 1 -0 -1 -0 2 nan
nan -0 0 0 -0 -1 -0 -0 -0 0 0 -0 -0 -1 -0 0 -0 -1 -1 -1 -0 0 0 0 0 -1 -0 1 0 1 0 -0 1 2 1 1 1 0 -0 0 0 2 1 nan
nan -0 -0 0 0 0 -0 -0 -0 0 0 -0 -1 -0 -0 0 0 -1 -2 -2 -0 1 1 0 -1 -1 0 0 1 0 0 2 1 1 1 0 0 1 1 0 0 1 1 nan
nan 0 0 0 0 -0 -0 -0 -0 0 -0 -0 -0 -0 -0 -0 -0 -2 -3 0 0 -0 0 -0 -1 -0 0 1 0 -1 0 1 1 1 -1 -1 2 2 1 1 1 1 1 nan
nan 0 0 0 -0 -0 -0 -0 -0 -0 0 -0 -0 -0 -0 -1 0 -1 -1 -0 -1 -1 -1 -0 0 0 -0 -0 0 0 0 1 1 -0 -0 1 2 2 2 2 2 1 1 nan
nan 0 0 -0 0 -0 -0 -0 -0 -0 0 0 0 -1 -1 -0 0 -1 -3 -1 -1 -1 -1 -0 -0 0 0 0 0 0 1 1 1 1 1 2 2 2 2 2 1 0 1 nan
nan -0 -0 0 -0 -0 -0 -0 0 0 -0 0 -0 -0 -1 -3 -4 -1 1 -0 -1 -0 -1 -0 -0 -0 0 0 1 1 1 1 1 2 1 1 1 2 2 1 1 1 1 nan
nan -0 -0 -0 0 -1 -1 -0 0 -0 -0 0 0 -0 -0 -3 -4 -3 -3 -1 -0 -0 -0 -0 0 0 -0 0 1 2 1 1 1 1 1 1 1 2 3 1 1 1 1 nan
nan 0 -0 -0 -0 -0 -0 -0 -0 -0 0 -0 -0 -0 -0 -1 -1 -2 -4 -1 -1 -1 -0 1 1 0 -0 0 1 1 2 2 2 1 1 1 2 2 1 1 1 0 1 nan
nan 0 -0 -0 0 -0 -0 -0 -0 -0 -0 -0 0 0 0 -0 -1 -3 -6 -5 -3 -2 -1 0 0 1 1 1 1 2 2 2 2 2 1 2 1 1 0 0 1 1 1 nan
nan 0 0 0 0 -1 -1 -0 -0 -0 -0 0 0 1 1 0 -1 -1 -3 -3 -2 -2 -2 1 1 0 1 1 2 3 2 2 2 1 1 1 0 1 1 1 1 1 1 nan
nan -0 0 0 -0 -0 -0 -1 -0 1 0 0 -0 0 1 -0 -1 -0 -1 -2 -1 -1 -0 1 2 1 1 2 2 2 2 2 1 1 1 1 1 1 1 1 1 1 1 nan
nan -0 -0 0 -0 -1 -2 -1 -1 -0 -0 -0 -0 0 1 -0 -1 -1 0 -1 -1 -0 -0 0 1 1 1 1 1 1 1 1 1 1 1 1 1 1 1 1 1 1 1 nan
nan 0 0 -0 -0 -1 -1 -0 -2 -2 -1 -1 -1 -0 1 -1 -1 -1 -1 -0 -1 -0 -0 -0 0 0 1 1 1 1 1 1 1 1 1 1 1 1 1 1 1 1 1 nan
nan nan nan nan nan nan nan nan nan nan nan nan nan nan nan nan nan nan nan nan nan nan nan nan nan nan nan nan nan nan nan nan nan nan nan nan nan nan nan nan nan nan nan nan
Wind_Speed
8 5 12 10 7 4 5 2 3 5 3 3 8 10 15 13 16 16 21 21 22 20 13 10 9 13 15 16 17 21 32 31 35 40 33 38 39 40 40 35 29 27 29 26
3 16 7 8 7 6 3 3 6 9 3 4 7 11 7 7 9 19 22 25 24 20 18 16 15 14 19 19 18 19 31 34 36 41 39 40 41 39 39 38 30 30 26 26
8 3 12 8 6 7 5 6 5 8 5 4 2 7 5 3 8 12 24 26 24 25 23 21 20 17 20 22 23 23 24 28 33 39 36 40 38 36 40 38 33 36 33 31
7 5 4 4 10 8 8 9 8 5 2 3 3 5 7 5 7 7 17 25 30 28 27 25 22 21 21 20 20 20 24 27 30 35 41 42 43 46 49 43 35 32 31 36
8 6 11 5 5 8 7 7 9 5 5 1 2 1 7 5 6 9 10 29 32 32 31 31 28 23 18 20 21 21 23 27 30 35 38 43 44 48 50 46 41 37 41 38
8 4 8 11 7 11 4 4 4 1 3 3 7 7 5 5 8 6 6 23 32 32 31 31 30 26 22 21 23 25 27 28 33 36 36 39 43 48 50 50 47 45 44 46
1 5 2 3 5 2 3 4 1 2 1 5 4 5 8 7 11 10 10 18 23 31 32 32 32 32 29 25 25 25 27 30 34 36 39 41 40 42 46 50 48 50 50 51
9 5 11 5 7 5 5 7 5 6 4 4 3 5 6 9 13 15 16 21 17 21 31 33 33 32 31 29 27 28 29 30 32 35 36 37 40 42 46 45 46 47 50 51
5 5 1 4 7 11 5 4 6 3 1 2 4 6 8 6 8 7 16 22 25 21 26 33 34 32 32 33 32 30 31 31 33 34 34 37 39 43 44 42 41 42 42 43
3 1 2 0 5 3 7 5 3 2 4 5 4 3 5 3 9 9 9 15 22 19 21 28 32 32 32 32 33 33 33 33 34 36 37 38 38 39 40 40 40 41 39 40
4 3 4 2 3 5 3 3 0 4 5 4 2 5 8 11 8 7 9 17 15 20 23 22 28 31 31 33 35 36 37 37 37 38 39 41 40 37 34 33 33 35 37 43
3 3 4 10 7 5 1 2 6 4 5 4 2 6 4 9 7 8 12 16 19 18 21 25 23 28 31 32 35 38 40 42 42 41 42 42 39 42 41 43 39 31 41 45
1 2 2 1 1 6 5 3 6 4 3 7 4 4 3 5 8 13 12 15 14 14 18 22 21 25 27 30 33 34 36 40 44 45 45 44 46 46 46 48 41 45 45 39
2 3 4 2 2 3 3 6 5 1 3 4 9 5 8 8 9 10 15 18 19 18 16 22 20 22 25 28 33 33 33 34 36 41 46 48 50 51 52 49 46 50 54 49
1 4 3 3 5 4 8 9 6 5 6 7 8 12 9 9 12 17 28 23 19 21 22 20 21 21 23 28 31 31 29 32 32 32 36 38 43 47 47 47 49 52 52 51
4 1 3 4 9 10 11 7 8 6 5 8 11 14 9 20 18 17 24 22 23 22 22 24 25 25 27 25 25 29 27 28 30 32 32 32 35 39 40 39 41 44 49 50
3 3 2 2 2 3 7 7 12 7 5 5 5 10 15 12 11 12 26 25 26 26 29 27 23 26 29 29 26 28 30 29 30 33 33 33 32 34 34 33 37 39 42 42
2 3 2 1 0 3 6 3 5 8 9 8 7 6 13 23 28 28 30 22 24 30 27 32 34 32 29 32 36 32 33 30 28 31 31 29 27 28 31 33 35 37 38 35
6 4 2 3 3 7 10 6 6 8 17 5 8 7 10 25 26 27 28 30 28 25 25 24 31 35 36 35 36 35 34 33 30 30 27 25 24 25 28 30 32 35 36 34
6 3 3 3 2 5 4 3 5 3 9 3 5 6 8 19 8 10 28 30 34 30 25 28 29 30 29 34 37 35 36 35 31 29 24 22 20 19 20 20 22 23 24 25
5 1 8 3 3 7 6 6 1 2 6 13 10 10 12 6 11 33 42 39 37 35 35 30 30 28 24 26 27 30 34 33 29 24 20 18 13 10 10 11 17 22 25 26
6 6 4 4 4 8 7 2 6 7 11 11 19 17 16 28 42 43 33 27 26 29 29 28 25 26 24 21 22 28 30 28 22 18 16 13 10 13 17 20 24 23 22 20
3 6 6 8 7 4 7 10 11 16 18 19 19 22 29 31 39 38 31 18 13 12 15 17 15 17 16 17 20 25 24 20 18 15 15 14 16 16 17 18 18 17 16 16
3 6 4 2 5 12 21 21 20 18 23 27 17 14 28 31 36 32 26 14 11 8 4 4 7 10 12 14 14 14 15 15 15 16 16 18 18 19 16 14 12 12 13 14
6 5 4 10 7 13 24 10 25 26 21 24 25 17 23 30 31 28 20 14 9 5 3 3 5 11 11 12 15 16 13 12 15 17 17 18 17 16 16 15 12 10 9 8
0 2 3 4 5 3 12 17 21 16 18 17 17 16 16 26 27 17 11 4 7 7 6 6 11 14 14 13 15 14 13 14 14 16 18 17 17 17 15 14 16 16 14 13
Wind_Direction
186 157 204 183 178 158 148 191 304 267 207 346 270 272 275 195 212 223 230 218 215 225 217 215 211 199 205 203 206 209 198 199 192 186 183 185 182 182 189 186 194 196 196 195
124 226 168 166 169 173 167 234 269 291 265 162 295 277 273 184 225 222 221 230 223 217 216 212 216 202 200 203 204 201 206 203 199 188 188 187 184 185 183 197 193 199 198 201
201 267 161 165 168 177 198 190 215 227 6 254 299 296 294 255 233 233 235 238 240 226 219 215 213 216 201 201 201 197 200 203 204 197 187 187 191 194 192 200 200 197 208 217
227 235 145 164 207 159 229 193 226 232 84 251 113 279 300 269 260 224 236 234 236 234 228 228 223 221 211 203 201 203 198 200 202 203 202 200 205 203 198 201 205 204 205 213
224 183 198 188 211 156 225 162 196 213 195 155 217 220 266 342 300 265 234 236 240 236 234 228 228 230 222 206 202 202 205 201 202 201 205 207 207 206 206 209 211 214 216 221
216 191 166 216 200 187 131 172 187 115 125 235 212 172 264 219 225 254 261 244 242 236 235 236 232 227 225 216 208 204 207 206 204 206 208 211 215 213 215 215 221 224 226 230
220 218 261 178 127 152 126 102 286 337 240 228 204 154 239 247 244 233 248 264 250 241 233 231 228 222 220 219 217 214 211 212 208 209 211 214 215 216 220 222 225 228 230 227
185 269 177 193 182 180 183 158 158 197 206 245 118 226 247 228 249 257 263 268 279 252 235 231 230 226 223 219 220 219 218 216 215 215 217 218 219 222 225 227 231 232 235 235
159 243 243 209 180 160 200 173 204 64 348 42 235 287 314 261 279 285 269 277 273 256 239 230 228 229 228 223 223 223 224 222 221 221 221 223 224 225 228 230 231 236 240 239
196 153 198 311 110 238 189 159 88 14 213 232 248 237 225 206 235 255 270 265 272 252 238 236 233 234 233 232 230 229 229 232 229 225 225 226 227 229 232 236 239 242 246 243
154 122 282 51 149 176 127 246 225 167 153 213 222 253 219 220 214 247 270 279 284 254 243 237 243 245 241 236 235 234 234 235 235 234 232 230 231 233 237 242 244 249 256 249
8 115 183 245 271 282 347 208 185 199 255 238 203 237 210 234 220 216 254 284 286 275 250 246 246 246 245 243 238 237 237 238 240 240 239 237 238 237 236 239 235 247 239 253
301 64 39 101 24 13 42 20 349 301 139 223 241 277 358 287 275 253 255 276 272 275 251 244 240 243 246 250 250 249 242 241 242 244 243 245 242 239 240 243 242 243 245 245
26 86 126 106 233 206 292 316 332 256 288 278 258 269 282 267 257 259 248 253 253 263 266 241 233 242 247 250 252 253 256 252 243 242 244 246 247 247 244 242 244 243 248 250
44 138 143 179 240 258 274 274 283 290 222 246 289 288 277 257 244 242 244 245 255 252 251 246 245 252 240 244 247 248 251 252 250 245 243 248 252 253 253 249 246 245 250 254
354 199 135 212 223 246 271 263 280 273 252 261 270 265 232 261 265 258 253 250 243 248 244 243 249 245 238 237 243 244 239 241 243 244 245 250 253 254 255 254 251 248 250 252
304 145 126 250 98 0 290 214 220 237 228 238 276 315 300 275 267 251 266 257 246 249 248 244 245 246 242 236 245 246 239 237 239 242 246 249 249 252 251 251 248 248 249 250
233 108 75 206 341 210 250 295 224 230 234 235 264 279 293 282 264 267 278 264 274 271 266 256 248 245 247 246 244 246 239 236 236 240 240 242 244 248 246 244 245 248 248 244
185 130 171 190 193 308 292 241 208 195 270 226 267 315 323 324 300 270 252 262 283 279 285 273 262 254 253 247 246 241 234 232 231 232 233 233 236 241 242 241 242 243 246 249
121 128 169 135 148 238 240 5 42 138 281 339 7 316 332 330 299 289 273 271 265 273 292 285 277 266 254 245 245 237 233 228 227 226 227 231 235 242 239 242 247 243 237 226
161 134 222 198 239 273 251 270 341 93 255 301 310 298 310 298 275 295 296 276 264 263 268 285 273 264 255 250 241 232 228 222 223 222 221 225 233 236 235 230 229 213 199 196
159 168 178 181 211 264 221 151 158 223 274 294 303 307 328 313 311 317 307 293 271 261 252 267 273 265 254 247 237 223 213 214 214 212 208 207 221 234 223 209 196 195 195 194
199 182 187 195 209 236 224 244 268 278 258 284 301 318 342 315 310 319 316 315 315 273 259 261 253 254 235 221 213 206 197 198 199 193 196 204 203 205 201 202 196 192 202 210
228 185 222 137 238 255 275 295 311 311 274 279 294 335 326 309 309 314 330 338 343 338 279 205 202 200 193 190 187 196 186 186 188 196 198 196 200 196 187 191 202 214 209 204
204 160 201 259 283 300 288 329 335 319 321 298 261 333 320 312 312 318 322 352 12 38 44 60 156 161 160 163 168 174 178 189 194 190 191 193 195 197 196 189 186 191 195 198
177 322 191 239 64 331 286 319 333 345 358 344 296 268 305 299 311 324 307 349 37 48 75 120 145 158 154 160 163 162 171 179 190 180 177 181 184 182 188 195 189 183 192 198
Height
1456 1464 1461 1459 1464 1468 1470 1472 1475 1468 1463 1462 1460 1459 1446 1453 1455 1457 1457 1459 1461 1461 1463 1464 1465 1467 1470 1474 1477 1479 1483 1487 1493 1497 1501 1508 1513 1520 1525 1531 1536 1541 1546 1548
1458 1453 1453 1458 1462 1466 1467 1472 1474 1465 1458 1463 1460 1456 1449 1451 1448 1449 1452 1453 1455 1459 1461 1462 1464 1466 1468 1471 1475 1478 1481 1485 1489 1494 1500 1506 1512 1518 1524 1531 1533 1539 1543 1546
1450 1449 1448 1454 1461 1466 1469 1472 1470 1470 1462 1459 1459 1459 1450 1444 1444 1445 1445 1448 1449 1453 1456 1458 1460 1462 1465 1468 1471 1475 1479 1483 1489 1495 1498 1505 1512 1518 1522 1527 1531 1534 1539 1543
1449 1445 1448 1450 1454 1457 1468 1459 1460 1465 1470 1477 1459 1479 1453 1444 1443 1442 1439 1440 1442 1445 1450 1453 1455 1458 1461 1465 1468 1471 1476 1481 1486 1491 1496 1500 1506 1510 1516 1520 1526 1529 1534 1538
1444 1442 1447 1450 1446 1451 1454 1454 1459 1460 1468 1468 1464 1475 1456 1446 1440 1436 1431 1430 1433 1437 1442 1447 1449 1453 1459 1462 1466 1469 1473 1478 1482 1486 1490 1495 1500 1506 1512 1516 1519 1524 1528 1532
1437 1435 1438 1439 1441 1446 1446 1452 1456 1460 1468 1480 1463 1469 1461 1450 1436 1429 1424 1423 1425 1429 1434 1440 1445 1451 1455 1459 1463 1466 1470 1473 1478 1482 1487 1492 1495 1500 1506 1509 1513 1518 1522 1526
1436 1435 1433 1433 1439 1442 1445 1457 1472 1474 1481 1476 1453 1466 1447 1433 1427 1422 1420 1418 1419 1423 1428 1433 1437 1441 1447 1453 1458 1461 1464 1469 1474 1477 1481 1485 1488 1493 1499 1504 1507 1511 1514 1516
1441 1446 1433 1430 1434 1441 1446 1451 1470 1471 1478 1464 1456 1459 1441 1422 1417 1418 1417 1416 1417 1417 1420 1426 1429 1434 1439 1444 1450 1455 1458 1463 1467 1471 1474 1479 1483 1487 1494 1496 1499 1503 1507 1509
1436 1436 1421 1422 1424 1431 1442 1451 1442 1457 1463 1472 1457 1443 1428 1418 1419 1417 1416 1414 1411 1412 1413 1418 1423 1427 1432 1437 1441 1446 1453 1458 1461 1465 1470 1473 1477 1481 1485 1489 1493 1498 1501 1503
1423 1431 1421 1420 1423 1427 1431 1434 1453 1461 1460 1463 1453 1448 1441 1422 1419 1415 1415 1412 1408 1408 1410 1413 1418 1421 1426 1430 1436 1440 1444 1448 1455 1459 1464 1468 1472 1476 1480 1484 1488 1492 1495 1498
1420 1428 1430 1422 1426 1430 1435 1439 1438 1443 1454 1455 1454 1446 1422 1414 1412 1414 1411 1407 1406 1406 1407 1409 1412 1416 1420 1426 1429 1432 1437 1440 1445 1450 1455 1460 1464 1469 1474 1479 1482 1485 1491 1490
1423 1431 1439 1430 1423 1423 1427 1431 1437 1451 1445 1451 1455 1433 1408 1410 1409 1410 1408 1405 1402 1403 1403 1405 1408 1411 1415 1418 1422 1425 1430 1434 1436 1442 1447 1452 1457 1461 1464 1467 1471 1475 1476 1478
1425 1433 1443 1432 1428 1431 1436 1435 1438 1437 1439 1443 1453 1436 1410 1409 1408 1405 1404 1402 1400 1400 1401 1403 1404 1405 1409 1412 1415 1417 1421 1424 1430 1435 1439 1443 1446 1451 1454 1458 1464 1468 1469 1474
1424 1433 1438 1445 1443 1442 1443 1440 1438 1440 1449 1439 1427 1424 1416 1410 1408 1401 1399 1398 1397 1397 1397 1398 1399 1400 1403 1406 1409 1412 1413 1416 1422 1426 1430 1433 1436 1439 1444 1449 1454 1458 1459 1463
1430 1435 1438 1437 1437 1439 1437 1437 1433 1436 1435 1437 1424 1421 1416 1408 1402 1395 1391 1391 1392 1392 1392 1393 1394 1395 1397 1401 1403 1406 1409 1411 1414 1418 1421 1421 1425 1429 1434 1439 1443 1448 1449 1452
1431 1438 1438 1442 1436 1434 1432 1432 1430 1424 1421 1419 1415 1410 1404 1395 1393 1392 1388 1386 1388 1388 1387 1388 1389 1390 1391 1394 1397 1399 1402 1405 1408 1410 1411 1415 1418 1420 1424 1429 1434 1437 1439 1443
1436 1437 1440 1438 1437 1437 1439 1426 1421 1416 1414 1413 1414 1408 1402 1393 1388 1386 1383 1381 1381 1382 1383 1383 1384 1384 1386 1388 1391 1393 1395 1398 1401 1404 1406 1409 1411 1413 1417 1421 1425 1429 1431 1436
1437 1440 1448 1449 1444 1444 1416 1410 1410 1412 1408 1405 1402 1395 1395 1390 1381 1376 1376 1376 1377 1376 1374 1375 1378 1379 1380 1381 1383 1385 1388 1391 1394 1398 1401 1403 1406 1408 1411 1414 1418 1422 1426 1429
1432 1442 1451 1454 1448 1431 1414 1406 1405 1406 1396 1397 1390 1388 1387 1384 1378 1365 1368 1371 1370 1368 1366 1365 1368 1370 1372 1373 1375 1378 1381 1385 1387 1392 1395 1398 1401 1403 1406 1410 1414 1417 1421 1424
1431 1434 1438 1445 1451 1450 1410 1401 1401 1401 1407 1396 1391 1389 1385 1385 1385 1368 1366 1363 1362 1361 1360 1360 1360 1360 1361 1364 1367 1371 1374 1378 1382 1386 1389 1394 1397 1400 1403 1405 1409 1411 1414 1418
1431 1434 1432 1434 1438 1425 1406 1400 1401 1410 1410 1391 1388 1385 1382 1384 1382 1373 1363 1354 1353 1353 1354 1352 1352 1353 1354 1357 1360 1363 1366 1371 1376 1382 1385 1390 1394 1398 1401 1401 1405 1408 1409 1412
1426 1434 1431 1431 1435 1429 1395 1400 1403 1397 1389 1389 1388 1384 1375 1375 1369 1363 1356 1347 1343 1343 1343 1345 1345 1347 1349 1351 1353 1357 1360 1366 1374 1379 1383 1387 1390 1395 1398 1399 1401 1405 1409 1411
1422 1417 1423 1421 1412 1397 1395 1391 1390 1390 1387 1386 1386 1381 1369 1371 1368 1362 1353 1345 1338 1336 1335 1337 1338 1344 1345 1348 1351 1356 1360 1366 1372 1377 1383 1386 1389 1392 1396 1399 1401 1403 1408 1412
1408 1407 1410 1410 1395 1394 1390 1388 1391 1388 1384 1382 1383 1374 1373 1372 1366 1361 1355 1344 1338 1336 1337 1335 1337 1342 1346 1350 1354 1361 1364 1368 1372 1378 1381 1385 1388 1391 1394 1397 1402 1406 1407 1410
1403 1402 1401 1397 1392 1391 1388 1390 1386 1383 1378 1377 1377 1373 1373 1371 1365 1360 1355 1349 1343 1338 1339 1339 1342 1344 1348 1352 1354 1359 1362 1367 1373 1376 1380 1384 1387 1392 1394 1398 1402 1406 1410 1413
1400 1401 1402 1399 1397 1397 1393 1390 1386 1381 1374 1376 1374 1371 1371 1368 1363 1358 1354 1350 1346 1345 1342 1342 1346 1345 1349 1354 1356 1358 1364 1369 1374 1376 1379 1385 1388 1391 1397 1399 1402 1406 1410 1413